Temp
9 8 8 8 7 8 8 8 8 8 8 7 7 8 8 7 8 8 8 8 8 8 8 8 7 7 7 6 6 6 6 6 6 6 6 6 6 6 6 6 6 6 6
9 8 8 8 8 7 8 8 8 8 8 8 7 7 8 8 8 8 8 8 8 8 8 7 7 7 7 6 6 6 6 6 6 6 6 6 6 6 7 7 7 7 7
9 9 8 8 8 7 8 8 8 8 8 8 7 7 7 7 8 8 7 8 8 8 7 7 7 7 7 7 6 6 6 6 6 6 6 6 7 7 7 8 8 7 7
9 8 8 8 8 7 8 8 8 8 8 7 7 7 7 7 7 8 7 7 7 7 7 7 7 7 7 6 6 6 7 7 7 7 7 7 8 8 8 7 7 7 6
9 9 8 8 8 7 7 8 8 8 8 7 7 7 7 7 7 7 7 7 7 7 7 7 7 7 7 7 7 7 7 7 7 7 7 7 8 7 7 7 7 6 6
9 8 8 8 8 8 8 8 8 8 8 7 7 7 7 7 7 7 7 7 7 7 7 7 7 7 7 7 7 7 7 7 7 7 7 7 7 7 7 7 6 6 6
10 9 8 8 8 8 8 8 8 8 8 7 7 7 6 6 6 6 6 7 6 6 6 7 7 7 7 7 7 7 7 7 7 7 7 7 7 7 6 6 6 6 5
10 9 8 8 8 8 8 8 8 8 7 7 7 6 7 6 6 6 6 6 6 6 6 6 7 7 7 7 7 8 8 8 7 7 7 7 6 6 6 6 5 5 5
10 9 9 8 8 8 8 8 8 7 7 7 7 7 6 6 6 6 6 6 6 6 6 6 6 7 7 8 7 7 7 7 7 7 6 6 6 6 6 5 5 4 4
10 9 9 9 9 8 8 8 8 7 7 7 7 7 6 6 6 6 6 6 6 6 6 6 6 7 7 7 7 7 7 7 6 6 6 5 5 5 5 4 4 4 4
9 8 8 8 8 8 8 8 8 7 7 7 7 7 6 6 6 6 6 6 6 6 6 6 6 7 7 6 6 6 6 6 6 5 5 5 5 4 4 4 4 4 4
10 9 8 8 8 8 8 7 8 8 7 7 7 7 6 6 6 6 6 6 6 5 6 6 6 6 6 6 6 6 6 6 5 5 5 4 4 4 4 4 4 4 4
10 10 9 9 8 8 8 7 8 8 8 7 7 7 7 6 6 6 6 5 5 5 5 5 6 6 5 6 6 5 5 5 4 4 5 4 4 4 4 3 4 4 3
10 9 9 9 8 8 8 7 7 8 8 7 7 7 6 6 6 6 5 5 5 5 5 5 6 6 5 5 5 5 4 4 4 4 4 4 3 3 3 3 3 3 3
9 9 9 9 8 8 8 7 7 8 8 7 7 6 6 6 6 5 5 5 4 4 5 5 5 5 5 5 5 4 4 4 4 4 3 3 3 3 3 3 3 3 3
8 9 9 9 8 8 8 7 7 8 8 7 7 6 6 6 5 5 5 5 4 4 5 5 5 5 5 5 5 4 4 4 3 3 3 3 3 3 3 3 3 3 3
9 9 9 8 8 8 8 7 7 7 7 7 7 6 6 6 5 5 5 5 5 5 5 5 5 5 4 4 4 4 4 3 3 2 3 3 3 3 3 3 3 3 3
7 8 9 8 8 8 8 7 7 7 7 7 7 6 6 6 5 4 5 5 5 5 5 5 5 5 4 3 3 3 3 3 2 2 3 3 3 3 3 3 2 2 3
6 7 8 8 8 9 8 8 7 7 7 7 7 7 6 6 5 5 5 5 5 5 4 4 5 4 4 3 3 3 2 2 2 2 2 3 2 2 2 2 2 2 2
5 5 7 8 7 8 7 8 7 7 7 7 6 6 6 5 5 5 5 5 5 5 5 4 4 4 3 3 3 3 3 3 2 2 3 3 3 2 2 2 2 2 2
5 4 6 7 7 8 7 8 8 8 7 7 6 6 5 5 6 5 5 5 5 5 5 5 5 4 3 3 3 3 3 3 3 3 3 3 3 2 2 2 2 2 2
5 4 5 7 7 7 7 8 8 7 7 6 6 6 6 5 5 5 5 5 5 5 5 5 4 3 3 3 3 2 3 2 2 3 3 3 3 3 2 2 2 2 2
5 5 5 6 6 7 7 7 7 6 6 6 6 6 6 6 5 5 5 5 5 5 5 4 4 3 3 3 3 2 3 2 2 3 3 3 2 2 2 2 2 2 2
5 5 5 6 6 6 6 6 7 7 7 6 6 6 5 6 5 5 5 5 5 5 4 3 3 3 2 2 2 2 2 2 2 3 3 3 2 2 2 2 2 2 1
4 4 4 5 5 5 6 6 7 7 7 6 5 5 5 5 5 5 5 5 4 4 3 3 3 3 2 2 2 2 2 3 2 2 2 2 2 2 2 2 2 1 1
5 4 3 5 5 5 6 6 6 6 6 6 6 5 5 5 5 5 4 4 4 3 3 3 3 3 3 2 2 2 2 2 2 2 2 2 2 2 2 1 1 1 1
Height
3165 3169 3172 3174 3176 3177 3177 3177 3177 3178 3178 3178 3179 3179 3179 3179 3180 3182 3182 3181 3181 3181 3181 3180 3180 3180 3180 3180 3180 3181 3181 3181 3180 3179 3178 3177 3176 3176 3175 3174 3172 3171 3170
3166 3168 3172 3174 3175 3177 3177 3177 3178 3179 3179 3180 3180 3180 3180 3180 3181 3182 3182 3182 3181 3182 3182 3182 3182 3182 3183 3183 3183 3183 3183 3182 3182 3181 3180 3180 3179 3177 3175 3174 3173 3171 3170
3164 3168 3171 3173 3175 3176 3177 3178 3178 3179 3180 3180 3180 3180 3180 3181 3181 3181 3182 3182 3182 3183 3183 3184 3185 3185 3186 3186 3185 3185 3184 3183 3183 3182 3181 3180 3179 3178 3176 3175 3173 3171 3170
3164 3168 3170 3172 3174 3176 3177 3178 3178 3179 3180 3180 3180 3181 3181 3182 3182 3182 3183 3183 3184 3184 3185 3186 3187 3187 3187 3187 3186 3185 3185 3184 3183 3182 3181 3180 3179 3178 3176 3175 3173 3172 3170
3164 3166 3169 3172 3173 3175 3177 3177 3178 3178 3179 3179 3180 3181 3182 3183 3183 3184 3184 3185 3185 3185 3186 3187 3188 3188 3188 3187 3187 3186 3185 3184 3183 3182 3181 3180 3179 3178 3176 3174 3173 3171 3170
3163 3165 3169 3171 3173 3174 3175 3177 3177 3177 3178 3179 3180 3182 3183 3183 3184 3184 3185 3186 3186 3186 3187 3188 3189 3189 3188 3188 3188 3187 3186 3185 3184 3183 3182 3181 3179 3178 3176 3175 3173 3172 3171
3162 3164 3168 3171 3172 3173 3175 3176 3177 3178 3179 3180 3181 3182 3183 3184 3185 3185 3186 3187 3188 3187 3188 3189 3190 3190 3190 3190 3189 3188 3187 3186 3185 3183 3182 3181 3180 3178 3177 3176 3174 3173 3171
3161 3163 3166 3169 3171 3173 3174 3176 3177 3178 3179 3180 3181 3182 3184 3185 3186 3186 3187 3188 3188 3189 3189 3190 3191 3191 3191 3191 3190 3189 3187 3186 3185 3184 3183 3182 3182 3180 3178 3177 3174 3173 3172
3160 3162 3165 3168 3170 3171 3173 3175 3176 3177 3178 3179 3181 3183 3184 3186 3186 3187 3187 3188 3189 3190 3191 3192 3192 3192 3192 3192 3190 3188 3188 3187 3186 3185 3184 3184 3182 3181 3180 3178 3176 3174 3173
3159 3162 3164 3167 3169 3170 3172 3173 3175 3177 3178 3179 3181 3183 3184 3185 3187 3188 3188 3190 3190 3191 3192 3192 3192 3192 3192 3191 3190 3189 3188 3187 3186 3186 3186 3185 3183 3182 3180 3179 3177 3175 3174
3158 3160 3163 3166 3168 3170 3171 3173 3174 3176 3178 3179 3181 3182 3184 3186 3187 3188 3189 3190 3191 3192 3193 3193 3193 3193 3193 3191 3190 3190 3189 3188 3188 3188 3187 3186 3185 3183 3181 3180 3178 3177 3176
3156 3157 3161 3164 3167 3169 3171 3173 3174 3176 3178 3179 3180 3182 3183 3185 3187 3188 3189 3190 3192 3193 3194 3194 3194 3194 3194 3192 3191 3190 3190 3189 3189 3189 3188 3187 3186 3184 3182 3181 3180 3179 3177
3154 3156 3158 3162 3165 3168 3171 3172 3173 3175 3178 3179 3180 3181 3183 3185 3187 3188 3190 3190 3193 3194 3194 3195 3195 3195 3195 3193 3192 3191 3191 3191 3191 3190 3189 3188 3187 3185 3183 3183 3180 3179 3177
3151 3154 3156 3159 3163 3166 3169 3171 3172 3174 3176 3180 3181 3181 3184 3186 3187 3189 3190 3190 3192 3194 3195 3195 3194 3196 3194 3193 3192 3192 3192 3193 3192 3191 3190 3189 3187 3186 3185 3183 3181 3180 3178
3149 3151 3153 3157 3160 3163 3166 3169 3171 3173 3175 3178 3181 3181 3183 3185 3186 3188 3189 3190 3191 3194 3195 3194 3194 3195 3194 3193 3193 3193 3193 3193 3192 3191 3190 3189 3188 3187 3186 3184 3183 3181 3179
3146 3148 3150 3154 3157 3161 3164 3167 3169 3171 3174 3176 3180 3180 3182 3184 3185 3187 3188 3189 3190 3192 3194 3194 3194 3194 3193 3193 3193 3194 3193 3193 3192 3191 3191 3190 3189 3188 3187 3185 3183 3182 3180
3143 3145 3147 3150 3154 3157 3160 3164 3167 3169 3173 3174 3177 3179 3181 3182 3184 3186 3187 3189 3189 3189 3191 3192 3192 3193 3192 3193 3194 3195 3194 3193 3192 3192 3192 3191 3190 3189 3187 3185 3184 3182 3180
3137 3140 3144 3145 3149 3153 3157 3160 3164 3167 3170 3172 3175 3178 3179 3181 3183 3184 3186 3188 3188 3189 3190 3190 3192 3193 3193 3194 3195 3195 3194 3194 3193 3193 3193 3192 3191 3189 3188 3186 3185 3183 3180
3132 3136 3141 3141 3144 3148 3153 3158 3161 3165 3168 3170 3173 3175 3176 3180 3182 3183 3185 3186 3188 3189 3189 3189 3191 3193 3194 3195 3195 3194 3193 3193 3193 3193 3193 3193 3191 3190 3188 3187 3186 3183 3181
3125 3130 3136 3138 3141 3145 3149 3153 3157 3161 3166 3168 3170 3173 3175 3178 3180 3182 3184 3185 3187 3187 3189 3189 3190 3192 3193 3194 3195 3194 3194 3194 3193 3194 3194 3193 3192 3191 3189 3187 3185 3184 3181
3116 3122 3127 3132 3135 3139 3143 3147 3153 3156 3160 3164 3167 3171 3174 3176 3178 3181 3182 3184 3185 3187 3188 3188 3189 3191 3192 3193 3194 3193 3193 3193 3192 3193 3193 3192 3192 3191 3190 3188 3186 3184 3181
3107 3118 3118 3126 3129 3134 3139 3144 3151 3155 3159 3164 3166 3169 3172 3174 3176 3178 3180 3182 3184 3186 3186 3187 3188 3190 3191 3192 3192 3192 3191 3192 3190 3191 3192 3192 3191 3191 3189 3187 3185 3183 3180
3100 3109 3108 3118 3123 3130 3134 3140 3147 3152 3155 3160 3162 3165 3168 3171 3174 3176 3177 3180 3182 3184 3185 3186 3188 3190 3190 3190 3191 3191 3190 3191 3191 3191 3191 3191 3190 3189 3188 3187 3185 3183 3181
3070 3096 3093 3110 3118 3125 3130 3135 3141 3147 3152 3156 3160 3163 3165 3168 3171 3174 3175 3177 3180 3183 3184 3185 3187 3188 3188 3188 3189 3189 3189 3190 3189 3191 3191 3190 3190 3189 3188 3187 3184 3182 3180
3079 3085 3082 3099 3111 3119 3124 3133 3137 3145 3151 3154 3156 3159 3161 3165 3169 3171 3173 3175 3178 3180 3182 3183 3185 3185 3186 3186 3187 3187 3188 3189 3188 3189 3189 3189 3188 3188 3187 3186 3184 3182 3179
3073 3072 3078 3092 3105 3114 3120 3127 3133 3141 3144 3148 3151 3155 3157 3162 3165 3168 3171 3173 3176 3178 3180 3181 3183 3183 3183 3184 3185 3186 3186 3187 3187 3188 3188 3187 3188 3187 3186 3185 3183 3181 3179
Wind_Speed
11 14 12 11 10 11 12 12 14 15 15 16 16 15 15 16 15 14 16 16 16 16 17 17 16 16 16 17 16 14 14 14 12 9 7 6 7 8 8 8 9 9 8
5 13 13 12 11 12 13 13 15 16 16 16 16 16 16 17 17 16 15 15 15 16 15 14 14 15 15 14 14 12 11 11 11 10 10 9 9 11 12 12 12 12 11
7 9 13 13 12 12 11 12 15 16 16 17 17 17 17 18 18 18 16 14 14 15 14 12 12 13 13 13 11 11 9 8 8 9 10 11 12 14 14 15 15 14 12
6 8 14 13 11 11 10 11 14 17 17 17 17 17 17 17 16 17 16 15 13 12 11 11 12 12 12 11 9 6 6 7 8 8 9 10 12 14 15 16 16 15 13
6 10 16 13 12 13 12 12 14 17 18 18 17 17 17 16 16 15 14 13 12 11 10 10 11 11 10 9 7 7 8 8 9 8 9 10 12 13 17 18 17 15 14
8 14 17 15 14 14 13 13 15 17 19 18 17 16 16 15 15 14 14 12 11 9 9 9 10 9 7 7 8 8 8 8 8 9 9 11 13 15 15 14 14 13 13
9 17 19 17 15 14 12 13 15 16 17 17 16 16 16 15 14 13 12 10 9 7 7 8 8 8 7 7 9 10 9 9 7 7 9 11 12 13 14 14 14 12 11
10 20 21 19 17 15 13 14 14 15 17 17 17 16 15 15 13 12 11 9 8 6 6 6 7 6 7 8 8 9 9 9 8 8 9 10 11 13 13 12 11 10 10
12 19 20 20 18 17 15 14 15 16 17 17 16 14 14 13 13 12 11 9 7 6 6 7 6 7 9 8 11 11 10 9 8 7 9 8 11 14 12 10 10 11 12
14 20 20 20 19 18 18 16 16 16 17 16 16 15 14 13 12 10 9 7 7 6 7 7 6 7 11 11 10 8 7 7 7 6 7 9 12 12 11 10 11 12 13
18 23 23 22 20 19 18 17 17 16 16 16 17 16 15 13 11 10 8 7 7 7 8 7 7 9 11 9 7 7 6 6 6 6 7 10 11 10 10 12 13 13 14
19 23 25 23 21 20 19 17 16 15 15 15 16 15 15 13 12 10 8 7 7 8 8 7 7 8 9 5 5 4 4 5 7 6 9 10 9 9 11 11 12 13 15
18 21 24 24 22 20 20 19 18 17 16 16 16 15 14 14 12 10 9 8 7 7 7 5 6 9 5 3 2 4 4 7 8 9 10 8 7 9 11 11 12 14 16
22 22 24 25 24 23 21 20 18 17 16 15 15 16 15 13 12 10 9 8 7 8 6 4 6 8 5 3 3 5 6 9 10 8 7 6 8 11 11 11 14 15 17
26 25 26 26 26 24 23 22 21 19 17 16 17 18 15 15 14 11 9 8 7 6 3 5 7 7 6 3 4 5 7 10 8 6 5 7 10 10 11 12 14 15 16
28 27 28 28 28 26 25 23 21 20 18 18 18 20 15 15 13 10 8 6 4 3 3 4 5 6 6 4 5 6 8 9 6 5 6 7 9 10 11 12 14 15 16
29 30 32 32 30 30 28 25 23 21 19 19 18 20 16 13 12 9 8 7 6 5 7 5 7 7 4 4 6 6 7 7 4 5 5 7 8 10 10 12 14 15 16
32 36 35 34 32 31 30 28 24 22 20 21 21 19 17 14 13 11 9 7 8 8 6 5 5 4 3 7 2 4 6 3 4 4 5 6 7 9 10 12 13 15 17
38 39 37 37 35 34 31 28 25 22 23 23 21 18 15 14 14 13 11 11 9 8 4 5 4 2 10 6 1 4 4 2 0 1 3 4 6 8 10 11 13 15 17
38 42 40 41 40 37 34 30 27 26 26 23 21 19 18 17 16 13 12 11 10 6 5 6 6 8 10 6 3 3 1 3 5 4 3 2 4 7 8 11 13 15 16
45 47 44 45 40 39 36 33 29 25 21 20 19 18 19 19 16 14 12 10 7 7 6 9 8 12 8 5 6 5 3 3 3 3 1 2 3 6 7 9 11 13 15
47 54 48 47 42 39 35 30 23 21 20 19 23 22 20 19 16 14 12 10 7 8 8 9 12 11 9 7 7 8 4 3 3 3 2 0 2 5 7 9 12 15 16
54 55 50 48 42 38 36 32 27 26 25 26 26 24 22 19 16 15 13 10 8 9 9 11 12 10 10 10 10 7 6 5 6 5 4 1 2 5 7 10 12 14 15
64 53 56 45 43 39 38 34 30 28 27 26 23 22 22 19 17 16 13 11 11 11 9 9 10 13 11 10 9 7 7 8 6 5 2 0 2 4 6 9 12 15 16
49 57 55 44 40 41 39 32 30 29 25 25 26 26 23 20 17 17 14 13 14 11 7 8 11 8 9 10 10 7 7 10 6 4 2 2 2 4 6 9 12 14 16
49 59 48 40 35 37 37 31 33 29 29 30 27 26 23 20 19 18 16 16 16 10 7 11 11 8 8 11 12 9 9 7 5 4 3 3 3 4 6 9 12 14 15
Wind_Direction
157 172 175 173 175 174 172 167 158 149 140 132 125 121 120 123 122 122 120 117 113 106 97 93 91 92 94 92 90 89 80 74 75 68 63 44 42 34 22 13 9 357 344
161 172 177 180 183 182 180 174 168 155 144 136 131 128 128 130 128 124 122 120 116 106 100 99 97 97 97 94 93 93 79 60 58 59 53 44 19 18 26 26 22 16 11
146 193 184 184 187 186 182 173 169 160 149 140 137 135 132 133 134 130 128 125 118 110 108 103 98 94 89 85 86 85 71 45 47 34 25 17 21 33 39 39 34 29 27
157 199 189 186 189 184 179 168 165 160 153 145 142 137 135 138 138 135 133 130 123 115 106 97 96 93 90 89 85 79 61 48 34 30 27 33 43 51 51 43 33 29 28
183 192 188 186 191 183 178 170 164 161 157 151 146 143 140 141 142 139 136 133 125 116 105 99 98 95 88 82 73 53 38 33 30 30 35 50 56 55 50 38 29 26 24
196 189 187 188 191 187 182 173 167 163 158 154 149 146 143 144 145 144 142 136 126 116 108 98 97 92 79 62 49 36 28 29 34 35 55 70 62 58 45 37 31 31 31
207 189 187 189 189 190 186 175 171 164 156 151 150 147 146 145 146 147 142 134 126 118 99 93 92 81 65 50 40 26 33 34 40 63 76 71 71 53 41 37 35 37 41
207 190 188 190 187 187 184 175 171 164 158 155 154 153 152 150 148 145 143 139 130 113 99 94 83 66 44 51 42 42 33 36 48 74 81 77 54 45 41 39 42 42 43
194 194 191 192 187 185 182 176 172 169 164 160 154 153 150 147 151 151 150 141 130 120 106 85 69 49 45 48 39 31 23 31 55 75 84 74 52 42 36 38 42 42 37
192 191 195 193 192 187 184 177 176 174 168 160 156 152 151 152 152 150 146 137 130 116 99 80 53 41 44 37 34 29 31 52 83 92 91 52 49 43 40 38 37 41 38
198 193 193 193 192 189 187 182 179 179 172 165 161 156 154 153 149 145 143 143 133 116 96 75 55 42 39 28 22 26 55 88 89 85 52 38 38 41 43 36 37 39 34
205 195 191 191 194 192 190 187 184 183 176 170 163 160 159 154 151 146 143 138 131 112 103 86 58 46 48 10 21 47 71 86 86 73 33 32 33 45 44 41 41 36 32
205 204 193 192 193 195 196 190 190 189 183 174 166 165 161 156 149 146 141 139 127 113 105 80 40 44 58 17 47 86 85 79 61 33 26 28 40 50 45 41 43 35 30
210 205 198 193 194 195 196 194 194 194 183 179 170 167 164 156 150 148 147 146 141 116 98 45 15 34 49 41 65 100 97 60 31 30 31 47 50 45 41 42 38 32 27
212 208 198 198 194 198 198 196 197 197 184 182 177 166 162 168 157 155 164 172 159 139 49 12 351 13 41 72 102 110 69 34 29 33 50 50 47 41 39 40 37 30 26
212 212 202 198 197 199 203 198 200 201 187 188 184 181 171 176 166 170 179 188 197 182 340 334 340 9 41 85 92 69 27 12 20 26 49 51 44 38 36 35 31 27 20
223 216 205 198 198 201 203 201 201 205 192 194 189 177 178 179 174 180 196 199 240 294 319 334 349 4 34 92 99 33 15 10 22 47 49 42 41 36 34 30 25 19 17
229 215 209 200 200 204 204 204 201 204 200 198 197 183 187 184 186 189 203 226 247 275 297 329 349 350 118 133 88 4 359 5 64 51 54 43 37 34 27 28 20 14 11
232 220 212 202 200 206 204 208 202 206 199 200 199 189 189 194 201 200 216 228 247 263 306 308 304 216 155 165 314 342 358 328 124 88 61 48 41 36 20 17 20 11 10
220 225 213 207 199 203 203 205 200 200 191 196 195 193 194 200 208 212 221 233 245 274 279 269 256 199 174 192 261 294 262 222 171 148 140 92 45 42 27 10 12 12 8
200 226 207 209 200 202 204 204 197 204 195 198 200 200 197 206 210 214 219 221 233 248 240 231 220 185 200 236 263 282 303 259 173 159 157 43 27 38 37 16 10 8 7
200 225 205 208 203 201 206 208 204 207 201 195 205 203 203 205 210 215 215 219 221 234 215 207 191 201 214 249 273 276 274 257 221 188 206 283 1 11 19 12 8 10 7
209 217 205 203 202 202 205 205 203 201 203 197 203 200 204 206 207 212 214 211 206 209 196 184 195 219 231 259 272 256 271 260 234 214 203 174 6 8 9 1 0 6 3
202 210 203 201 200 202 207 205 209 213 205 199 205 204 205 211 206 209 209 197 190 186 172 189 225 239 244 249 251 248 275 264 217 233 239 278 342 7 7 354 354 2 359
210 217 205 201 199 201 210 208 210 208 203 198 201 205 206 211 202 204 191 193 190 192 201 222 229 229 226 238 244 251 260 256 241 237 256 277 315 346 359 352 353 358 354
255 215 203 205 203 204 208 207 208 204 202 197 202 210 207 205 199 197 188 192 194 204 223 214 221 226 224 232 246 257 257 257 217 245 249 273 302 339 348 350 347 351 350